Location: Praha
(50.0830°N, 14.4670°E)
Time: 04:35:11
(UTC+01:00)

ISS - Visible Passes

Search period start: 22 March 2023 00:00
Search period end: 01 April 2023 01:00
Orbit: 414 x 423 km, 51.6° (Epoch: 22 March)

Date Brightness Start Highest point End Pass type
(mag) Time Alt. Az. Time Alt. Az. Time Alt. Az.
22 Mar -3.6 20:18:02 10° W 20:21:23 64° N 20:21:38 61° NNE visible
23 Mar -3.6 19:30:10 10° W 19:33:31 68° N 19:35:46 19° ENE visible
23 Mar -1.6 21:07:05 10° WNW 21:08:43 26° WNW 21:08:43 26° WNW visible
24 Mar -3.8 20:19:13 10° WNW 20:22:34 71° N 20:22:47 67° NE visible
25 Mar -3.5 19:31:18 10° W 19:34:39 65° N 19:36:50 20° E visible
25 Mar -1.7 21:08:08 10° WNW 21:09:46 26° W 21:09:46 26° W visible
26 Mar -3.9 21:20:13 10° WNW 21:23:34 82° SSW 21:23:46 76° SE visible
27 Mar -3.8 20:32:16 10° WNW 20:35:38 81° NNE 20:37:45 21° E visible
27 Mar -1.5 22:09:12 10° W 22:10:41 21° W 22:10:41 21° W visible
28 Mar -3.2 21:21:07 10° WNW 21:24:21 45° SSW 21:24:40 43° S visible
29 Mar -3.6 20:33:04 10° WNW 20:36:25 63° SSW 20:38:39 19° SE visible
29 Mar -1.0 22:10:38 10° W 22:11:35 13° WSW 22:11:35 13° WSW visible
30 Mar -2.0 21:22:09 10° W 21:24:50 22° SW 21:25:34 21° SSW visible
31 Mar -2.4 20:33:53 10° W 20:36:56 32° SSW 20:39:36 12° SSE visible
